Weather History for KPTK - January, 2013

Change the Weather History Date:

Wednesday, January 30, 2013

  Actual Average Record
Temperature  
Mean Temperature 52 °F -  
Max Temperature 68 °F 30 °F 68 °F (2013)
Min Temperature 33 °F 16 °F 1 °F (2003)
Degree Days  
Heating Degree Days 14    
Growing Degree Days 2 (Base 50)    
Moisture  
Dew Point 47 °F    
Average Humidity 89    
Maximum Humidity 100    
Minimum Humidity 52    
Precipitation  
Precipitation 0.53 in - - ()
Sea Level Pressure  
Sea Level Pressure 29.22 in    
Wind  
Wind Speed 12 mph (SW)    
Max Wind Speed 31 mph    
Max Gust Speed 40 mph    
Visibility 6 miles    
Events Fog , Rain , Snow    
Averages and records for this station are not official NWS values.
T = Trace of Precipitation, MM = Missing Value Source: NWS Daily Summary

Daily Weather History Graph

Daily Weather History Graph

Search for Another Location

Airport or City:

Trip Planner

Search our weather history database for the weather conditions in past years. The results will help you decide how hot, cold, wet, or windy it might be!

Date:

Astronomy

Jan. 30, 2013 Rise Set
Actual Time 7:49 AM EST 5:44 PM EST
Civil Twilight 7:19 AM EST 6:14 PM EST
Nautical Twilight 6:45 AM EST 6:48 PM EST
Astronomical Twilight 6:12 AM EST 7:22 PM EST
Moon 9:49 PM EST (1/30) 9:10 AM EST (1/30)
Length of Visible Light 10h 55m
Length of Day
9h 55m
Waning Gibbous, 88% of the Moon is Illuminated
Jan 30
Waning Gibbous
Feb 3
Last Quarter
Feb 10
New
Feb 17
First Quarter
Feb 25
Full

Hourly Weather History & Observations

Time (EST) Temp. Windchill Dew Point Humidity Pressure Visibility Wind Dir Wind Speed Gust Speed Precip Events Conditions
12:53 AM 68.0 °F - 52.0 °F 56% 29.42 in 8.0 mi South 11.5 mph - 0.00 in   Overcast
1:53 AM 68.0 °F - 52.0 °F 56% 29.35 in 9.0 mi SSE 11.5 mph 19.6 mph 0.04 in Rain Light Rain
2:53 AM 66.9 °F - 53.1 °F 61% 29.28 in 10.0 mi South 12.7 mph 19.6 mph 0.07 in   Overcast
3:53 AM 59.0 °F - 55.0 °F 87% 29.24 in 10.0 mi South 21.9 mph 29.9 mph 0.01 in   Overcast
4:08 AM 57.2 °F - 55.4 °F 94% 29.28 in 2.5 mi West 19.6 mph 39.1 mph 0.11 in Rain Heavy Rain
4:13 AM 55.4 °F - 53.6 °F 94% 29.29 in 1.8 mi West 19.6 mph 31.1 mph 0.14 in Rain Heavy Rain
4:17 AM 55.4 °F - 53.6 °F 94% 29.29 in 3.0 mi West 24.2 mph 28.8 mph 0.15 in Rain Heavy Rain
4:20 AM 53.6 °F - 51.8 °F 94% 29.30 in 4.0 mi WNW 20.7 mph 28.8 mph 0.15 in Rain Rain
4:33 AM 53.6 °F - 51.8 °F 94% 29.30 in 8.0 mi WNW 11.5 mph 25.3 mph 0.15 in Rain Light Rain
4:53 AM 55.9 °F - 50.0 °F 80% 29.29 in 10.0 mi WNW 8.1 mph - 0.15 in Rain Light Rain
5:53 AM - - 48.9 °F N/A% 29.33 in 7.0 mi West 13.8 mph - 0.05 in Rain Light Rain
6:24 AM 51.8 °F - 48.2 °F 88% 29.33 in 8.0 mi West 6.9 mph - 0.03 in Rain Light Rain
6:53 AM 48.9 °F - 48.9 °F 100% 29.31 in 5.0 mi Calm Calm - 0.06 in Rain Rain
7:16 AM 51.8 °F - 48.2 °F 88% 29.30 in 1.8 mi Calm Calm - 0.02 in Rain Light Rain
7:30 AM 51.8 °F - 48.2 °F 88% 29.31 in 3.0 mi SSW 4.6 mph - 0.02 in   Mostly Cloudy
7:46 AM 48.2 °F - 46.4 °F 93% 29.29 in 0.8 mi SE 4.6 mph - 0.02 in   Mostly Cloudy
7:48 AM 48.2 °F - 46.4 °F 93% 29.28 in 0.8 mi SE 4.6 mph - 0.02 in   Mostly Cloudy
7:53 AM 50.0 °F - 48.0 °F 93% 29.28 in 0.8 mi SSE 5.8 mph - 0.02 in   Mostly Cloudy
8:07 AM 50.0 °F - 48.2 °F 94% 29.26 in 0.5 mi SSE 5.8 mph - N/A Fog Fog
8:18 AM 50.0 °F - 48.2 °F 94% 29.25 in 0.2 mi SSE 5.8 mph - N/A Fog Fog
8:53 AM 48.0 °F - 48.0 °F 100% 29.27 in 0.2 mi SSW 6.9 mph - N/A Fog Fog
9:53 AM 48.9 °F - 48.9 °F 100% 29.28 in 0.2 mi SW 6.9 mph - N/A Fog Fog
10:43 AM 48.2 °F - 48.2 °F 100% 29.31 in 1.0 mi WSW 9.2 mph - N/A   Mist
10:51 AM 48.2 °F - 48.2 °F 100% 29.33 in 3.0 mi SW 9.2 mph - N/A   Overcast
10:53 AM 48.9 °F - 48.9 °F 100% 29.31 in 3.0 mi SSW 8.1 mph - N/A   Overcast
11:47 AM 51.8 °F - 48.2 °F 88% 29.26 in 10.0 mi SSW 8.1 mph - N/A   Overcast
11:53 AM 51.1 °F - 48.9 °F 92% 29.26 in 10.0 mi SW 6.9 mph - N/A   Overcast
12:28 PM 51.8 °F - 50.0 °F 94% 29.25 in 10.0 mi SSW 6.9 mph - N/A   Overcast
12:53 PM 52.0 °F - 51.1 °F 97% 29.22 in 10.0 mi SW 10.4 mph - N/A   Overcast
1:53 PM 52.0 °F - 48.9 °F 89% 29.20 in 10.0 mi South 11.5 mph 17.3 mph N/A   Overcast
2:05 PM 53.6 °F - 48.2 °F 82% 29.21 in 10.0 mi SSW 13.8 mph 20.7 mph N/A   Overcast
2:17 PM 51.8 °F - 48.2 °F 88% 29.22 in 5.0 mi SSW 12.7 mph 18.4 mph N/A   Overcast
2:53 PM 51.8 °F - 48.2 °F 88% 29.19 in 5.0 mi South 9.2 mph - N/A   Light Drizzle
3:38 PM 51.8 °F - 48.2 °F 88% 29.16 in 3.0 mi SSW 6.9 mph - 0.00 in   Light Drizzle
3:46 PM 51.8 °F - 48.2 °F 88% 29.14 in 2.5 mi South 9.2 mph - 0.00 in   Light Drizzle
3:53 PM 51.1 °F - 48.0 °F 89% 29.13 in 2.5 mi South 6.9 mph - 0.00 in   Light Drizzle
4:38 PM 50.0 °F - 48.2 °F 94% 29.16 in 7.0 mi SSW 10.4 mph - 0.01 in   Overcast
4:53 PM 50.0 °F - 48.9 °F 96% 29.14 in 10.0 mi SSW 11.5 mph 17.3 mph 0.01 in   Overcast
5:21 PM 64.4 °F - 46.4 °F 52% 29.14 in 10.0 mi SSW 8.1 mph 18.4 mph N/A   Overcast
5:32 PM 48.2 °F - 46.4 °F 93% 29.13 in 10.0 mi SSW 9.2 mph 17.3 mph N/A   Mostly Cloudy
5:53 PM 48.9 °F - 46.0 °F 90% 29.12 in 10.0 mi South 9.2 mph - N/A   Scattered Clouds
6:16 PM 50.0 °F - 46.4 °F 87% 29.11 in 10.0 mi South 10.4 mph - N/A   Mostly Cloudy
6:36 PM 48.2 °F - 46.4 °F 93% 29.10 in 10.0 mi South 11.5 mph - 0.00 in Rain Light Rain
6:53 PM 48.9 °F - 46.0 °F 90% 29.11 in 9.0 mi SSW 15.0 mph 21.9 mph 0.01 in Rain Light Rain
7:19 PM 44.6 °F 35.9 °F 41.0 °F 87% 29.13 in 10.0 mi SW 23.0 mph 31.1 mph 0.02 in Rain Light Rain
7:34 PM 44.6 °F 36.9 °F 39.2 °F 81% 29.13 in 10.0 mi WSW 18.4 mph 34.5 mph 0.03 in Rain Light Rain
7:53 PM 43.0 °F 36.8 °F 39.0 °F 86% 29.12 in 10.0 mi WSW 11.5 mph 20.7 mph 0.03 in Rain Light Rain
8:48 PM 42.8 °F 36.6 °F 39.2 °F 87% 29.10 in 9.0 mi WSW 11.5 mph - 0.01 in Rain Light Rain
8:53 PM 42.1 °F 35.7 °F 39.0 °F 89% 29.11 in 8.0 mi WSW 11.5 mph 21.9 mph 0.02 in Rain Light Rain
9:07 PM 41.0 °F 33.1 °F 37.4 °F 87% 29.11 in 10.0 mi SW 15.0 mph 23.0 mph 0.00 in Rain Light Rain
9:26 PM 39.2 °F 31.6 °F 37.4 °F 93% 29.11 in 10.0 mi WSW 12.7 mph 24.2 mph 0.01 in Rain Light Rain
9:53 PM 39.0 °F 31.0 °F 36.0 °F 89% 29.12 in 7.0 mi WSW 13.8 mph 26.5 mph 0.01 in Rain Light Rain
10:53 PM 36.0 °F 24.7 °F 33.1 °F 89% 29.15 in 10.0 mi West 21.9 mph 29.9 mph 0.05 in   Overcast
10:57 PM 35.6 °F 22.3 °F 32.0 °F 87% 29.14 in 10.0 mi West 31.1 mph 40.3 mph N/A   Overcast
11:53 PM 33.1 °F 19.8 °F 32.0 °F 96% 29.20 in 8.0 mi West 26.5 mph 40.3 mph 0.00 in Snow Light Snow